FENGYUN 1C DEB

Satellite information

Favourite Embed

Satellite Type and Status

DEBRISIN ORBIT

Key statistics

Satellite FENGYUN 1C DEB at a glance.

Uptime

9714

Days in orbit

Revolutions

≈ 14.3

Per day

Orbit

SSO

Sun Synchronous Orbit

Inclination

98.8

Latest

Satellite identification and parameters

Extended collection of information and parameters for FENGYUN 1C DEB.

Object identification

Identified? True

Debris? True

Object name: FENGYUN 1C DEB

International designator: 1999-025EBJ

Object number (NORAD): 36736

Object ID (CCSDS): 36736

Country: PEOPLES REPUBLIC OF CHINA (PRC)

Current information (Y/N): Y

RCS size: SMALL

Orbital parameters

Period: 101.021 minutes

Inclination: 98.8055 deg

SMA: 7185.109 km

Apoapsis: 850.954 km

Periapsis: 762.994 km

RAAN: 58.914 deg

Eccentricy: 0.00612102

Argument of periapsis: 143.7847 deg

Mean anomaly: 216.75 deg

Mean motion: 14.25452426 rev/day

Mean motion (dot): 0.00007008 rev/day2

B* drag term: 0.0029263971 1/REarth

Two-line elements (TLE)

Creation date: Dec. 11, 2025, 7:14 p.m.

Reference frame: TEME

Reference center: EARTH

Epoch: Dec. 11, 2025, 11 a.m. UTC

TLE line 0: 0 FENGYUN 1C DEB

TLE line 1: 1 36736U 99025EBJ 25345.45869782 .00007008 00000-0 29264-2 0 9998

TLE line 2: 2 36736 98.8055 58.9140 0061210 143.7847 216.7500 14.25452426885976

Live tracking on map

Real-time ground track for satellite FENGYUN 1C DEB.

In-orbit conjunctions

A list of the most updated potential collisions computed for object FENGYUN 1C DEB.

Target Orbit TCA Probability of collision Miss distance Type
THOR BURNER 2 R/B SSO 2025-03-20 14:27:49 0.0002510893 423.0 (m) ROCKET BODY
CZ-6A DEB LEO 2025-03-02 11:20:26 0.0001164912 467.0 (m) DEBRIS
ARIANE 40 R/B SSO 2025-02-07 16:13:50 0.0001158974 420.0 (m) ROCKET BODY
CZ-6A DEB SSO 2024-09-03 22:50:54 0.0002873971 220.0 (m) DEBRIS
COSMOS 2369 LEO 2024-06-06 21:57:35 0.0001931504 126.0 (m) PAYLOAD

Associated space launch

Chinese polar orbiting meteorological satellite

FENGYUN 1C DEB was lifted into orbit during the mission ‘Long March 4B | Feng Yun 1C’, on board a Long March 4B space rocket.

The launch took place on May 10, 1999, 1:33 a.m. from Launch Complex 7.

For more information about the launch, click the button.

Launch to space Long March 4B | Feng Yun 1C
Long March 4B | Feng Yun 1C

Agency: N/A

Status: Launch Successful

Launch date: May 10, 1999, 1:33 a.m. UTC

Rocket: Long March 4B

Launch pad: Launch Complex 7

Location: Taiyuan Satellite Launch Center, People's Republic of China

...

Latest news about this satellite

There are no fresh news available about this satellite. Check back as we update our databases every day.


Newsletter sign-up

Weekly statistics, charts and insights to help you stay on top of the space industry.